TimeCST,TemperatureF,Dew PointF,Humidity,Sea Level PressureIn,VisibilityMPH,Wind Direction,Wind SpeedMPH,Gust SpeedMPH,PrecipitationIn,Events,Conditions,WindDirDegrees,DateUTC
12:53 AM,7.0,1.0,77,30.21,4.0,SE,5.8,-,0.00,Snow,Light Snow,130,2013-01-18 06:53:00
1:02 AM,6.8,1.4,79,30.10,2.5,SE,6.9,-,0.00,Snow,Light Snow,130,2013-01-18 07:02:00
1:12 AM,6.8,1.4,79,30.09,1.5,SE,6.9,-,0.00,Snow,Light Snow,140,2013-01-18 07:12:00
1:53 AM,7.0,3.0,84,30.18,1.5,SE,6.9,-,0.02,Snow,Light Snow,140,2013-01-18 07:53:00
2:33 AM,8.6,3.2,79,30.01,2.0,ESE,10.4,-,0.01,Snow,Light Snow,120,2013-01-18 08:33:00
2:48 AM,8.6,3.2,79,29.99,4.0,SE,10.4,-,0.01,Snow,Light Snow,130,2013-01-18 08:48:00
2:53 AM,9.0,5.0,84,30.09,3.0,SE,11.5,-,0.01,Snow,Light Snow,130,2013-01-18 08:53:00
3:01 AM,8.6,5.0,85,29.97,5.0,SE,9.2,-,0.00,Snow,Light Snow,130,2013-01-18 09:01:00
3:53 AM,10.9,7.0,84,30.05,10.0,SE,9.2,-,0.00,,Overcast,130,2013-01-18 09:53:00
4:53 AM,10.9,7.0,84,29.99,10.0,SE,12.7,-,N/A,,Overcast,140,2013-01-18 10:53:00
5:53 AM,12.0,8.1,84,29.96,10.0,SE,9.2,-,N/A,,Overcast,140,2013-01-18 11:53:00
6:53 AM,12.9,9.0,84,29.92,10.0,SE,9.2,-,N/A,,Overcast,140,2013-01-18 12:53:00
7:27 AM,12.2,8.6,85,29.79,10.0,SE,9.2,-,N/A,,Overcast,130,2013-01-18 13:27:00
7:53 AM,12.9,10.0,88,29.88,10.0,SE,6.9,-,N/A,,Overcast,130,2013-01-18 13:53:00
8:17 AM,14.0,10.4,86,29.78,10.0,SSE,9.2,-,N/A,,Overcast,150,2013-01-18 14:17:00
8:47 AM,15.8,10.4,79,29.77,9.0,SE,6.9,-,N/A,,Overcast,140,2013-01-18 14:47:00
8:53 AM,15.1,10.9,84,29.88,10.0,SSE,8.1,-,N/A,,Overcast,150,2013-01-18 14:53:00
9:11 AM,15.8,10.4,79,29.77,8.0,SSE,3.5,-,N/A,,Overcast,150,2013-01-18 15:11:00
9:53 AM,16.0,10.9,81,29.86,10.0,SE,6.9,-,N/A,,Overcast,140,2013-01-18 15:53:00
10:53 AM,18.0,12.9,81,29.83,10.0,SSE,5.8,-,N/A,,Overcast,150,2013-01-18 16:53:00
11:53 AM,19.9,14.0,78,29.80,10.0,Calm,Calm,-,N/A,,Overcast,0,2013-01-18 17:53:00
12:53 PM,21.0,15.1,78,29.79,10.0,Calm,Calm,-,N/A,,Overcast,0,2013-01-18 18:53:00
1:53 PM,24.1,17.1,75,29.77,10.0,Calm,Calm,-,N/A,,Overcast,0,2013-01-18 19:53:00
2:53 PM,23.0,17.1,78,29.77,10.0,Calm,Calm,-,N/A,,Overcast,0,2013-01-18 20:53:00
3:53 PM,26.1,17.1,69,29.77,10.0,NNW,3.5,-,N/A,,Clear,340,2013-01-18 21:53:00
4:53 PM,21.0,16.0,81,29.79,10.0,Calm,Calm,-,N/A,,Partly Cloudy,0,2013-01-18 22:53:00
5:53 PM,17.1,14.0,88,29.80,10.0,Calm,Calm,-,N/A,,Clear,0,2013-01-18 23:53:00
6:53 PM,18.0,14.0,84,29.79,9.0,Calm,Calm,-,N/A,,Overcast,0,2013-01-19 00:53:00
7:53 PM,17.1,14.0,88,29.80,9.0,Calm,Calm,-,N/A,,Mostly Cloudy,0,2013-01-19 01:53:00
8:53 PM,21.0,17.1,85,29.79,9.0,Calm,Calm,-,N/A,,Overcast,0,2013-01-19 02:53:00
9:53 PM,24.1,21.0,88,29.78,7.0,West,3.5,-,N/A,,Overcast,260,2013-01-19 03:53:00
10:25 PM,23.0,19.4,86,29.70,5.0,NW,4.6,-,0.00,Snow,Light Snow,320,2013-01-19 04:25:00
10:53 PM,23.0,19.0,85,29.77,6.0,SW,3.5,-,0.00,,Overcast,230,2013-01-19 04:53:00
11:02 PM,21.2,19.4,93,29.70,6.0,WSW,3.5,-,N/A,,Overcast,250,2013-01-19 05:02:00
11:10 PM,21.2,17.6,86,29.70,6.0,WSW,4.6,-,N/A,,Overcast,240,2013-01-19 05:10:00
11:44 PM,21.2,19.4,93,29.68,6.0,South,5.8,-,N/A,,Scattered Clouds,180,2013-01-19 05:44:00
11:53 PM,21.0,18.0,88,29.75,6.0,South,6.9,-,N/A,,Scattered Clouds,180,2013-01-19 05:53:00